This demonstration page uses our WeatherBlox Daily Observations layout. Learn more.

Left ArrowRight Arrow

40.92945, -100.16068

Hourly Observations for May 9, 2020

Temp ( °F °C ) Dew Point ( °F °C ) Humidity (%) Winds ( mph kmh ) Pressure ( in mb ) Visibility ( mi km ) Precip ( " mm )
12:15 am 00:15 Clear 42 5.3 32 0 69 69 SSE 7 11 30.29 1026 10 16.0934 0 0
12:35 am 00:35 Clear 42 5.6 31 -0.4 66 66 SE 7 11 30.28 1025 10 16.0934 0 0
12:55 am 00:55 Clear 43 6.1 31 -0.7 62 62 SE 7 11 30.28 1025 10 16.0934 0 0
1:15 am 01:15 Clear 40 4.6 31 -0.4 70 70 SSE 8 13 30.28 1025 10 16.0934 0 0
1:35 am 01:35 Clear 40 4.5 31 -0.5 70 70 SSE 7 11 30.27 1025 10 16.0934 0 0
1:55 am 01:55 Clear 40 4.6 31 -0.5 70 70 SSE 8 13 30.27 1025 10 16.0934 0 0
2:15 am 02:15 Partly Cloudy 40 4.5 31 -0.5 70 70 SSE 7 11 30.27 1025 10 16.0934 0 0
2:35 am 02:35 Cloudy 42 5.4 31 -0.3 67 67 SE 6 9 30.26 1025 10 16.0934 0 0
2:55 am 02:55 Cloudy 44 6.6 31 -0.5 61 61 SSE 6 9 30.25 1024 10 16.0934 0 0
3:15 am 03:15 Cloudy 44 6.5 32 0 64 64 SSE 7 11 30.24 1024 10 16.0934 0 0
3:35 am 03:35 Cloudy 44 6.5 33 0.4 65 65 S 5 7 30.24 1024 10 16.0934 0 0
3:55 am 03:55 Cloudy 45 7.2 32 0 61 61 S 7 11 30.24 1024 10 16.0934 0 0
4:15 am 04:15 Cloudy 45 7.3 32 -0.1 60 60 S 7 11 30.24 1024 10 16.0934 0 0
4:35 am 04:35 Mostly Cloudy 45 7.1 32 -0.1 61 61 S 7 11 30.24 1024 10 16.0934 0 0
4:55 am 04:55 Mostly Cloudy 45 7 32 -0.2 61 61 S 5 7 30.24 1024 10 16.0934 0 0
5:15 am 05:15 Cloudy 46 7.8 30 -1.3 53 53 SSW 12 19 30.23 1024 10 16.0934 0 0
5:35 am 05:35 Cloudy 46 7.9 30 -1.3 53 53 S 12 19 30.22 1023 10 16.0934 0 0
5:55 am 05:55 Mostly Cloudy 46 7.7 29 -1.4 53 53 S 12 19 30.22 1023 10 16.0934 0 0
6:15 am 06:15 Partly Cloudy 46 7.7 30 -1.3 53 53 SSW 10 17 30.22 1023 10 16.0934 0 0
6:35 am 06:35 Partly Cloudy 46 8 29 -1.7 51 51 SSW 10 17 30.22 1023 10 16.0934 0 0
6:55 am 06:55 Partly Cloudy 46 7.8 29 -1.4 53 53 SW 9 15 30.23 1024 10 16.0934 0 0
7:15 am 07:15 Partly Cloudy 46 7.9 30 -1.1 53 53 SW 9 15 30.24 1024 10 16.0934 0 0
7:35 am 07:35 Cloudy 46 7.5 31 -0.4 58 58 SW 7 11 30.24 1024 10 16.0934 0 0
7:55 am 07:55 Cloudy 46 8 31 -0.3 56 56 SW 10 17 30.24 1024 10 16.0934 0 0
8:15 am 08:15 Cloudy 48 8.7 31 -0.4 53 53 SW 8 13 30.23 1024 10 16.0934 0 0
8:35 am 08:35 Cloudy 48 9 32 0 54 54 WSW 8 13 30.25 1024 10 16.0934 0 0
8:55 am 08:55 Cloudy 48 9 33 0.5 56 56 SW 6 9 30.25 1024 10 16.0934 0 0
9:15 am 09:15 Cloudy 49 9.4 35 1.4 58 58 SW 7 11 30.25 1024 10 16.0934 0 0
9:35 am 09:35 Cloudy 51 10.4 36 2 56 56 SW 9 15 30.23 1024 10 16.0934 0 0
9:55 am 09:55 Cloudy 52 11.1 35 1.6 52 52 WSW 10 17 30.22 1023 10 16.0934 0 0
10:15 am 10:15 Cloudy 52 11.3 35 1.5 51 51 WSW 12 19 30.22 1023 10 16.0934 0 0
10:35 am 10:35 Cloudy with Drizzle 52 11.2 37 2.7 56 56 W 14 22 30.22 1023 10 16.0934 0 0
10:55 am 10:55 Cloudy with Light Rain 51 10.4 38 3.6 63 63 WSW 10 17 30.24 1024 10 16.0934 0 0
11:15 am 11:15 Cloudy with Drizzle 49 9.7 42 5.6 76 76 SW 12 19 30.22 1023 10 16.0934 0 0
11:35 am 11:35 Cloudy 50 10.1 42 5.4 73 73 SW 14 22 30.22 1023 10 16.0934 0 0
11:55 am 11:55 Cloudy with Light Rain 49 9.5 44 6.4 81 81 SSW 13 20 30.22 1023 10 16.0934 0 0
12:15 pm 12:15 Cloudy 51 10.7 44 6.8 77 77 SSW 12 19 30.19 1023 10 16.0934 0 0
12:35 pm 12:35 Mostly Cloudy 54 12 43 5.9 67 67 SSW 13 20 30.18 1022 10 16.0934 0 0
12:55 pm 12:55 Cloudy 54 12.3 41 5.1 62 62 SW 10 17 30.18 1022 10 16.0934 0 0
1:15 pm 13:15 Cloudy 54 12.2 38 3.4 55 55 SW 10 17 30.18 1022 10 16.0934 0 0
1:35 pm 13:35 Cloudy 53 11.9 37 2.8 54 54 WSW 9 15 30.18 1022 10 16.0934 0 0
1:55 pm 13:55 Cloudy 56 13.2 38 3.6 52 52 WSW 9 15 30.16 1021 10 16.0934 0 0
2:15 pm 14:15 Cloudy 57 14 39 3.7 50 50 WSW 12 19 30.14 1021 10 16.0934 0 0
2:35 pm 14:35 Mostly Cloudy 59 14.8 39 3.7 48 48 WSW 10 17 30.14 1021 10 16.0934 0 0
2:55 pm 14:55 Cloudy 58 14.2 37 2.7 46 46 W 17 28 30.14 1021 10 16.0934 0 0
3:15 pm 15:15 Cloudy 54 12.4 40 4.6 59 59 NNW 5 7 30.16 1021 10 16.0934 0 0
3:35 pm 15:35 Cloudy 55 12.8 42 5.4 61 61 N 15 24 30.17 1022 10 16.0934 0 0
3:55 pm 15:55 Cloudy 53 11.5 42 5.8 68 68 N 14 22 30.18 1022 10 16.0934 0 0
4:15 pm 16:15 Cloudy 54 12 43 6 67 67 N 7 11 30.16 1021 10 16.0934 0 0
4:35 pm 16:35 Mostly Cloudy 57 13.8 43 6.2 60 60 N 10 17 30.15 1021 10 16.0934 0 0
4:55 pm 16:55 Cloudy 55 12.7 43 6.1 64 64 N 16 26 30.16 1021 10 16.0934 0 0
5:15 pm 17:15 Mostly Cloudy 56 13.5 41 5.1 57 57 NNW 17 28 30.15 1021 10 16.0934 0 0
5:35 pm 17:35 Mostly Cloudy 56 13.1 40 4.7 57 57 NNW 17 28 30.15 1021 10 16.0934 0 0
5:55 pm 17:55 Mostly Cloudy 57 14 40 4.7 54 54 NW 13 20 30.14 1021 10 16.0934 0 0
6:15 pm 18:15 Partly Cloudy 58 14.7 36 2.3 43 43 NNW 14 22 30.14 1021 10 16.0934 0 0
6:35 pm 18:35 Partly Cloudy 59 15 36 2.1 42 42 NW 17 28 30.14 1021 10 16.0934 0 0
6:55 pm 18:55 Mostly Cloudy 59 15 35 1.4 40 40 NNW 23 37 30.14 1021 10 16.0934 0 0
7:15 pm 19:15 Partly Cloudy 56 13.5 34 1.2 43 43 N 22 35 30.16 1021 10 16.0934 0 0
7:35 pm 19:35 Sunny 55 12.9 33 0.8 44 44 N 25 41 30.17 1022 10 16.0934 0 0
7:55 pm 19:55 Sunny 53 11.9 33 0.6 46 46 N 23 37 30.19 1022 10 16.0934 0 0
8:15 pm 20:15 Sunny 51 10.7 32 0 48 48 N 25 41 30.23 1024 10 16.0934 0 0
8:35 pm 20:35 Partly Cloudy 49 9.6 32 -0.1 51 51 N 20 31 30.25 1025 10 16.0934 0 0
8:55 pm 20:55 Partly Cloudy 48 8.8 32 -0.2 54 54 N 20 31 30.27 1025 10 16.0934 0 0
9:15 pm 21:15 Mostly Cloudy 47 8.1 30 -1 53 53 N 20 31 30.3 1026 10 16.0934 0 0
9:35 pm 21:35 Mostly Cloudy 45 7.4 30 -1 56 56 NNW 13 20 30.33 1027 10 16.0934 0 0
9:55 pm 21:55 Partly Cloudy 44 6.5 30 -1 59 59 NNW 14 22 30.35 1028 10 16.0934 0 0
10:15 pm 22:15 Clear 42 5.8 30 -1.2 61 61 N 15 24 30.37 1028 10 16.0934 0 0
10:35 pm 22:35 Clear 41 5.2 30 -1.2 64 64 N 13 20 30.39 1029 10 16.0934 0 0
10:55 pm 22:55 Clear 41 5 29 -1.4 64 64 N 17 28 30.39 1029 10 16.0934 0 0
11:15 pm 23:15 Clear 41 4.9 29 -1.5 64 64 N 18 30 30.39 1029 10 16.0934 0 0
11:35 pm 23:35 Clear 39 4.1 30 -1.2 69 69 NNW 12 19 30.41 1030 10 16.0934 0 0
11:55 pm 23:55 Clear 39 3.7 29 -1.4 70 70 NNW 12 19 30.42 1030 10 16.0934 0 0

Powered by AerisWeather